TimeEST,TemperatureF,Dew PointF,Humidity,Sea Level PressureIn,VisibilityMPH,Wind Direction,Wind SpeedMPH,Gust SpeedMPH,PrecipitationIn,Events,Conditions,WindDirDegrees,DateUTC
12:53 AM,39.9,19.0,43,30.03,10.0,WNW,11.5,-,N/A,,Clear,300,2014-01-18 05:53:00
1:53 AM,37.9,18.0,45,30.05,10.0,WNW,13.8,27.6,N/A,,Clear,300,2014-01-18 06:53:00
2:53 AM,36.0,15.1,43,30.08,10.0,WNW,12.7,-,N/A,,Clear,290,2014-01-18 07:53:00
3:53 AM,34.0,12.9,42,30.09,10.0,West,15.0,25.3,N/A,,Clear,280,2014-01-18 08:53:00
4:53 AM,30.9,14.0,50,30.09,10.0,West,4.6,-,N/A,,Clear,270,2014-01-18 09:53:00
5:53 AM,30.0,16.0,56,30.11,10.0,West,10.4,-,N/A,,Clear,280,2014-01-18 10:53:00
6:53 AM,28.9,14.0,54,30.13,10.0,West,6.9,-,N/A,,Clear,270,2014-01-18 11:53:00
7:53 AM,30.0,15.1,54,30.15,10.0,WSW,6.9,-,N/A,,Clear,250,2014-01-18 12:53:00
8:53 AM,33.1,15.1,48,30.17,10.0,West,11.5,-,N/A,,Clear,270,2014-01-18 13:53:00
9:53 AM,36.0,14.0,41,30.19,10.0,WNW,13.8,23.0,N/A,,Clear,300,2014-01-18 14:53:00
10:53 AM,39.0,14.0,36,30.19,10.0,West,16.1,21.9,N/A,,Clear,280,2014-01-18 15:53:00
11:53 AM,41.0,14.0,33,30.18,10.0,West,16.1,24.2,N/A,,Clear,270,2014-01-18 16:53:00
12:53 PM,43.0,14.0,31,30.14,10.0,WNW,9.2,-,N/A,,Clear,290,2014-01-18 17:53:00
1:53 PM,45.0,14.0,29,30.12,10.0,WSW,12.7,21.9,N/A,,Clear,250,2014-01-18 18:53:00
2:53 PM,46.0,14.0,28,30.10,10.0,WNW,11.5,23.0,N/A,,Clear,290,2014-01-18 19:53:00
3:53 PM,46.0,12.9,26,30.10,10.0,West,10.4,18.4,N/A,,Clear,260,2014-01-18 20:53:00
4:53 PM,45.0,12.9,27,30.10,10.0,West,9.2,19.6,N/A,,Clear,270,2014-01-18 21:53:00
5:53 PM,39.9,15.1,36,30.11,10.0,West,6.9,-,N/A,,Clear,270,2014-01-18 22:53:00
6:53 PM,35.1,19.0,52,30.10,10.0,Calm,Calm,-,N/A,,Clear,0,2014-01-18 23:53:00
7:53 PM,30.9,19.0,61,30.11,10.0,Calm,Calm,-,N/A,,Clear,0,2014-01-19 00:53:00
8:53 PM,30.9,18.0,59,30.09,10.0,South,4.6,-,N/A,,Clear,180,2014-01-19 01:53:00
9:53 PM,30.9,18.0,59,30.08,10.0,South,5.8,-,N/A,,Clear,180,2014-01-19 02:53:00
10:53 PM,32.0,18.0,56,30.07,10.0,South,6.9,-,N/A,,Clear,180,2014-01-19 03:53:00
11:53 PM,30.0,19.9,66,30.09,10.0,Calm,Calm,-,N/A,,Clear,0,2014-01-19 04:53:00